Volver al catálogo

SBS 5

ActivoComunicacionesGEO
NORAD 19484·PAYLOAD·🇺🇸 United States

Lanzado Sep 8, 1988 desde Guiana Space Centre

Loading…

TLE

ActualizadoSource: Space-Track

Época: Sep 9, 2026, 21:08 UTC

1 19484U 88081B   26252.88101741  .00000089  00000-0  00000+0 0  9994
2 19484  14.6238   0.2736 0005980 309.6283  48.0997  0.99785949 47304

Sigue SBS 5 en tiempo real con AllMySat

Download on the App Store